{"data":{"norad_id":45062,"epoch":"2026-09-20T00:00:02.998944Z","epoch_age_seconds":57871,"freshness":"FRESH","line1":"1 45062U 20006U   26263.00003471  .01056900  57248-3  19359-2 0  9998","line2":"2 45062  53.0295 358.4259 0002683  12.5951 263.4342 16.00836252  6059","mean_motion":16.00836252,"eccentricity":0.0002683,"inclination_deg":53.0295,"raan_deg":358.4259,"arg_perigee_deg":12.5951,"mean_anomaly_deg":263.4342,"bstar":0.0019359,"rev_number":605,"period_min":89.952985397535,"perigee_km":270.3174459956,"apogee_km":273.88596408473,"semimajor_km":6650.2387050402,"source":"CELESTRAK","updated_at":"2026-09-20T09:00:38.223440Z"}}